Погода Баку

Погода Баку : погода сейчас, прогноз погоды и архив. Всё, что Вы хотите узнать о погоде Баку!

Поиск расширенной информации на нашем сайте:

Другие новости

Новости СМИ2

Главная страница сайта

Новости сайта

03.07.2017

Напоминаем, что на нашем специализированном сайте Метеоцентр.Азия вы можете получить высокодетализированные автоматические прогнозы погоды по пунктам России, СНГ и мира в авиационном формате (включающие направление и скорость ветра, видимость, явления погоды, количество и форму облачности, нижнюю и верхнюю границу облачности).

Рекомендуем: Прямо из Китая капсулы kang xin - дешево!

Погода Баку - сегодня

Время (UTC), дата Ветер
(°,м/с) 
Видим.   Явления Облачность Т
(°С)
Тd
(°С)
f(%) Тe
(°С)
Pmin
(гПа)
dP
(гПа)
Po
(мм)
O2
(г/м3)
Тmin Tmax R s Состояние
почвы
21 16.09.17 150 (ЮВ) 20000 м    ясно 
+20 +14.3 70 +27  1020.4  -0.1  761  283           
00 17.09.17 330 (СЗ) 20000 м    ясно 
+19.7 +15.3 76 +30  1020.2  -0.2  761  283           
03 17.09.17 330 (СЗ) 20000 м    ясно 
+18.7 +14.8 78 +28  1020.9  0.6  761  284           
06 17.09.17 тихо ()   20000 м    ясно 
+26.6 +11.9 40 +30  1021.3  0.6  762  278  +18.5        сухая 
09 17.09.17 тихо ()   20000 м    ясно 
+32.2 +11.7 29 +35  1011.1  762  273           
12 17.09.17 120 (ЮВ) 20000 м    ясно 
+31.2 +10.7 28 +33  1019.9  -1.2  761  273           
15 17.09.17 120 (ЮВ) 20000 м    ясно 
+27.2 +12.4 40 +31  1020.1  761  277           
21 17.09.17 290 (З) 20000 м    ясно 
+21.6 +16.4 72 +32  1019.7  761  280           
00 18.09.17 тихо ()   20000 м    ясно 
+20.5 +16.5 78 +31  1019.2  -0.6  760  281           
03 18.09.17 тихо ()   20000 м    ясно 
+18 +14.2 78 +25  1019.3  760  284           
09 18.09.17 170 (Ю) 20000 м    ясно 
+31.4 +5.3 19 +31  1018.1  -1.9  760  274           
12 18.09.17 180 (Ю) 20000 м    ясно 
+31.8 +3 16 +32  1017.5  -0.6  759  274           
15 18.09.17 180 (Ю) 20000 м    ясно 
+27.8 +6.7 26 +28  1017.5  759  277           
21 18.09.17 тихо ()   20000 м    ясно 
+23.7 +18.5 73 +39  1017.8  -0.1  759  277           
00 19.09.17 тихо ()   20000 м    ясно 
+22 +17.4 75 +35  1017.6    759  279           
03 19.09.17 тихо ()   20000 м    ясно 
+21.5 +17.3 77 +34  1017.6  759  280           
06 19.09.17 180 (Ю) 20000 м    ясно 
+26.6 +15.2 50 +35  1017.9  0.4  759  276  +21.3         
09 19.09.17 180 (Ю) 20000 м    ясно 
+29 +15.3 43 +38  1017.2  -0.6  759  273           
12 19.09.17 180 (Ю) 20000 м    ясно 
+29 +15.3 43 +38  1016.1  -1.1  758  273           
15 19.09.17 180 (Ю) 20000 м    ясно 
+25.8 +19 66 +42  1016.8  0.6  759  275           
21 19.09.17 тихо ()   20000 м    ясно 
+21.8 +19 84 +38  1017.7  -0.2  759  279           
00 20.09.17 тихо ()   20000 м    ясно 
+21.8 +19.3 86 +38  1017.2  -0.5  759  279           
03 20.09.17 тихо ()   20000 м    ясно 
+22.1 +19.2 84 +39  1017.3  0.1  759  278           
09 20.09.17 170 (Ю) 20000 м    ясно 
+31.4 +8.6 24 +31  1017.5  -0.9  759  273           
12 20.09.17 170 (Ю) 20000 м    ясно 
+31.1 +7.3 23 +31  1016.6  -0.9  759  273           
Время (UTC), дата Ветер
(°,м/с) 
Видим.   Явления Облачность Т
(°С)
Тd
(°С)
f(%) Тe
(°С)
Pmin
(гПа)
dP
(гПа)
Po
(мм)
O2
(г/м3)
Тmin Tmax R s Состояние
почвы

Для получения пояснительной информации подведите курсор к названию столбца.

ПОГОДА Баку - архив

Всё, что Вы хотите узнать о погоде Баку - удобно и подробно!

Выберите нужную дату (начиная с 1 января 2015* года) и нажмите кнопку "Найти".
Будут отображены архивные сводки погоды по пункту Баку, начиная с указанной даты.


Отображать данные в формате CSV (для использования в таблицах Excel)


Внимание! Наш архив погоды предназначен исключительно для личного некоммерческого использования в познавательных целях. Если Вам необходимы официальные справки о состоянии погоды (для производственных, юридических, коммерческих и т.п. целей), обращайтесь в органы Росгидромета.

*Примечание: данная дата относится к архиву по метеостанциям СССР (Россия, СНГ, Балтия).
Архив по метеостанциям Зарубежной Европы и Азии (кроме Китая) хранится 10 дней, по другим регионам земного шара (Китай, Африка, Америка, Австралия, Океания) - 1 день.

Баку - район местоположения метеостанции


Название, широта, долгота, высота метеостанции:
Баку (Дендропарк) 40.4°ш. 49.8°д. 61 м над ур. моря [Азербайджан]

Дополнительная информация

В oтличие oт бoльшинства пoгoдных сайтoв мы публикуем пoдрoбную метеoинфoрмацию в детальнoм прoфессиoнальнoм фoрмате.

Характеристики температуры и влажнoсти вoздуха измеряются на высoте 2 м в тени вдали oт зданий и деревьев.
Скoрoсть ветра измеряется на высoте 10 м (на урoвне рoста челoвека скoрoсть ветра ниже в 1.5-2 раза). Если метеoстанция нахoдится в гoрoде или в лесу, тo скoрoсть ветра занижена на 2-4 м/с пo сравнению с oткрытым местoм. Скoрoсть ветра над акватoриями крупных рек и oзёр, а также на вершинах хoлмoв на 2-5 м/с выше, чем в oбычных услoвиях.
Атмoсфернoе давление в разных тoчках местнoсти мoжет значительнo oтличаться oт давления на метеoстанции, в зависимoсти oт услoвий рельефа (при пoдъёме на 10 м давление пoнижается примернo на 1 мм рт.ст.).